AirNav   Air Wisconsin Up To $57,000 Bonus
 
 689 users online  

2M7 Hoffman's Black Mountain Aerodrome
Cheboygan, Michigan, USA

GOING TO CHEBOYGAN?


FAA INFORMATION EFFECTIVE 07 NOVEMBER 2019

Location

FAA Identifier: 2M7
Lat/Long: 45-31-53.8200N 084-18-28.9600W
45-31.897000N 084-18.482667W
45.5316167,-84.3080444
(estimated)
Elevation: 677 ft. / 206 m (estimated)
Variation: 06W (1995)
From city: 11 miles SE of CHEBOYGAN, MI
Time zone: UTC -5 (UTC -4 during Daylight Saving Time)
Zip code: 49721

Airport Operations

Airport use: Open to the public
Activation date: 09/1998
Control tower: no
ARTCC: MINNEAPOLIS CENTER
FSS: LANSING FLIGHT SERVICE STATION
NOTAMs facility: LAN (NOTAM-D service available)
Attendance: IREG
Wind indicator: yes
Segmented circle: no

Airport Communications

CTAF/UNICOM: 122.8
WX AWOS-3 at SLH (12 nm NW): 118.175 (231-627-4671)

Nearby radio navigation aids

VOR radial/distance  VOR name  Freq  Var
PLNr118/16.1PELLSTON VORTAC111.8006W
GLRr034/35.4GAYLORD VOR/DME109.2006W

Airport Services

Parking: hangars
Airframe service: MAJOR
Powerplant service: MAJOR

Runway Information

Runway 15/33

Dimensions: 2800 x 90 ft. / 853 x 27 m
Surface: turf, in fair condition
RY 15/33 SOFT WHEN WET. CALL 231-627-2418 TO CFM RY CONDS. RY ROUGH, UNEVEN, TIRE RUTS.
Runway edge markings: RY 15/33 MKD WITH 3 FT YELLOW CONES.
RUNWAY 15  RUNWAY 33
Latitude: 45-32.092333N45-31.701667N
Longitude: 084-18.656333W084-18.309000W
Elevation: 672.0 ft.676.0 ft.
Traffic pattern: leftleft
Runway heading: 154 magnetic, 148 true334 magnetic, 328 true
Obstructions: 75 ft. trees, 120 ft. right of centerline
RWY 15 APCH RATIO 20:1 FM DSPLCD THLD.
40 ft. trees, 105 ft. right of centerline
APCH RATIO 20:1 FM DSPLCD THLD OVER +55 FT TREES; 1100 FT FM DSPLCD THLD.

Airport Ownership and Management from official FAA records

Ownership: Privately-owned
Owner: ALLEN AND BETSY HOFFMAN
9341 TWIN LAKES ROAD
CHEBOYGAN, MI 49721
Phone 231-627-2418
Manager: ALLEN D. HOFFMAN
9341 TWIN LAKES ROAD
CHEBOYGAN, MI 49721
Phone 231-627-2418

Airport Operational Statistics

Aircraft based on the field: 2
Single engine airplanes: 2
    
Aircraft operations: avg 25/month *
50% transient general aviation
50% local general aviation
* for 12-month period ending 31 December 2018

Additional Remarks

RY 15/33 DITCH ON BOTH SIDES OF RY.
FOR CD CTC MINNEAPOLIS ARTCC AT 651-463-5588.

Instrument Procedures

There are no published instrument procedures at 2M7.

Some nearby airports with instrument procedures:

KSLH - Cheboygan County Airport (12 nm NW)
6Y1 - Bois Blanc Island Airport (16 nm NW)
KPLN - Pellston Regional Airport of Emmet County (21 nm W)
KPZQ - Presque Isle County Airport (22 nm E)
KMCD - Mackinac Island Airport (24 nm NW)
 
Loc | Ops | Rwys | IFR | FBO | Links
Com | Nav | Svcs | Stats | Notes
Area around 2M7 (Hoffman's Black Mountain Aerodrome)
 
Road maps at: MapQuest Bing Google
 
Aerial photo
No photo
 
Sectional chart

 
Airport distance calculator
Flying to Hoffman's Black Mountain Aerodrome? Find the distance to fly.

From to 2M7

Sunrise and sunset
Times for 13-Nov-2019
 Local
(UTC-5)
 Zulu
(UTC)
Morning civil twilight07:0312:03
Sunrise07:3512:35
Sunset17:0822:08
Evening civil twilight17:4022:40

Current date and time
Zulu (UTC)  13-Nov-2019 12:53:05
Local (UTC-5)  13-Nov-2019 07:53:05
 
METAR
KSLH 
11nm NW 
131235Z AUTO 15005KT 10SM CLR M08/M10 A3019 RMK AO2 T10771103
KPLN 
21nm W 
131154Z AUTO 17005KT 10SM CLR M07/M12 A3020 RMK AO2 SLP241 60001 70004 T10671122 11067 21089 56014
KPZQ 
22nm E 
131235Z AUTO 20006KT 10SM CLR M09/M12 A3025 RMK AO2 T10871117
TAF
KPLN 
21nm W 
131120Z 1312/1412 18010KT P6SM SCT025 OVC040 FM131500 18012G21KT P6SM VCSH BKN025 OVC040 FM131800 18013G21KT 2SM -SHSN OVC025 FM140000 20009KT 4SM -SHSN OVC025 FM140600 26005KT 6SM -SHSN OVC035
NOTAMs
Click for the latest NOTAMs
NOTAMs are issued by the DoD/FAA and will open in a separate window not controlled by AirNav.

 

 
 

Would you like to see your business listed on this page?

 If your business provides an interesting product or service to pilots, flight crews, aircraft, or users of the Hoffman's Black Mountain Aerodrome, you should consider listing it here.  To start the listing process, click on the button below
 
Add a business
 

Other Pages about Hoffman's Black Mountain Aerodrome

Page from the Michigan Airport Directory (PDF)
 
Update a link
 
Copyright © AirNav, LLC. All rights reserved. Privacy Policy  Contact